This demonstration page uses our WeatherBlox Daily Observations layout. Learn more.

Left ArrowRight Arrow

47.50024, -111.30081

Hourly Observations for January 17, 2016

Temp ( °F °C ) Dew Point ( °F °C ) Humidity (%) Winds ( mph kmh ) Pressure ( in mb ) Visibility ( mi km ) Precip ( " mm )
12:53 am 00:53 Cloudy with Light Snow 10 -12.2 7 -13.9 87 87 E 6 9 30.15 1021 3 5 0.00 0.03
1:05 am 01:05 Cloudy with Light Snow 9 -12.8 7 -13.9 92 92 ENE 6 9 30.24 1024 3 4 0.01 0.25
1:13 am 01:13 Cloudy with Light Snow 9 -12.8 7 -13.9 92 92 ENE 7 11 30.24 1024 2 3 0.01 0.25
1:25 am 01:25 Cloudy with Light Snow 9 -13 7 -14 92 92 ENE 6 9 30.24 1024 1 2 0.00 0.00
1:53 am 01:53 Cloudy with Light Snow 10 -12.2 7 -13.9 87 87 ENE 5 7 30.15 1021 1 2 0.03 0.76
2:01 am 02:01 Cloudy with Light Snow 10 -12.2 6 -14.4 84 84 NE 3 6 30.24 1024 6 10 0.00 0.03
2:11 am 02:11 Cloudy with Mist and Fog 9 -12.8 6 -14.4 88 88 NE 3 6 30.24 1024 5 8 0.00 0.03
2:19 am 02:19 Cloudy with Mist and Fog 9 -12.8 6 -14.4 88 88 NNE 5 7 30.24 1024 4 6 0.00 0.03
2:53 am 02:53 Cloudy 10 -12.2 7 -13.9 87 87 Calm 30.16 1022 9 14 0.00 0.03
3:53 am 03:53 Cloudy 10 -12.2 8 -13.3 92 92 ESE 5 7 30.16 1022 10 16 0.00 0.00
4:53 am 04:53 Mostly Clear 8 -13.3 5 -15 87 87 E 5 7 30.17 1022 10 16 0.00 0.00
5:53 am 05:53 Clear 5 -15 2 -16.7 87 87 ENE 6 9 30.19 1022 8 13 0.00 0.00
6:53 am 06:53 Clear 2 -16.7 -1 -18.3 88 88 E 6 9 30.22 1023 10 16 0.00 0.00
7:53 am 07:53 Clear 3 -16.1 0 -17.8 87 87 E 5 7 30.21 1023 10 16 0.00 0.00
8:17 am 08:17 Partly Cloudy with Mist and Fog 3 -16 0 -18 85 85 E 5 7 30.33 1027 2 3 0.00 0.00
8:27 am 08:27 Partly Cloudy with Mist and Fog 2 -16.7 0 -17.8 91 91 E 6 9 30.36 1028 3 5 0.00 0.00
8:53 am 08:53 Sunny 4 -15.6 2 -16.7 91 91 ENE 5 7 30.23 1024 9 14 0.00 0.00
8:57 am 08:57 Partly Cloudy with Mist and Fog 4 -15.6 1 -17.2 88 88 E 6 9 30.33 1027 2 3 0.00 0.00
9:03 am 09:03 Mostly Cloudy with Mist and Fog 3 -16 1 -17 92 92 E 5 7 30.36 1028 1 2 0.00 0.00
9:07 am 09:07 Partly Cloudy with Mist and Fog 4 -15.6 1 -17.2 88 88 E 6 9 30.33 1027 2 3 0.00 0.00
9:12 am 09:12 Partly Cloudy with Mist and Fog 3 -16 0 -18 85 85 E 6 9 30.33 1027 3 5 0.00 0.00
9:53 am 09:53 Partly Cloudy with Mist and Fog 6 -14.4 3 -16.1 87 87 E 7 11 30.22 1023 4 6 0.00 0.00
10:45 am 10:45 Partly Cloudy with Mist and Fog 7 -13.9 4 -15.6 87 87 ESE 5 7 30.33 1027 2 3 0.00 0.00
10:53 am 10:53 Partly Cloudy with Mist and Fog 8 -13.3 4 -15.6 83 83 E 5 7 30.23 1024 3 5 0.00 0.00
11:53 am 11:53 Sunny 8 -13.3 6 -14.4 92 92 E 6 9 30.20 1023 10 16 0.00 0.00
12:53 pm 12:53 Sunny 12 -11.1 7 -13.9 80 80 E 5 7 30.18 1022 10 16 0.00 0.00
1:53 pm 13:53 Sunny 12 -11.1 7 -13.9 80 80 E 9 15 30.14 1021 10 16 0.00 0.00
2:53 pm 14:53 Sunny 13 -10.6 8 -13.3 81 81 E 7 11 30.12 1020 10 16 0.00 0.00
3:53 pm 15:53 Sunny 11 -11.7 7 -13.9 84 84 ESE 8 13 30.12 1020 10 16 0.00 0.00
4:53 pm 16:53 Sunny 10 -12.2 6 -14.4 84 84 E 7 11 30.13 1020 10 16 0.00 0.00
5:53 pm 17:53 Clear 11 -11.7 7 -13.9 84 84 E 7 11 30.13 1020 10 16 0.00 0.00
6:53 pm 18:53 Mostly Cloudy 12 -11.1 9 -12.8 87 87 E 7 11 30.11 1020 10 16 0.00 0.00
7:53 pm 19:53 Cloudy 13 -10.6 9 -12.8 84 84 E 5 7 30.10 1019 10 16 0.00 0.00
8:53 pm 20:53 Mostly Cloudy 12 -11.1 8 -13.3 84 84 undefined N/A 30.06 1018 10 16 0.00 0.00
9:53 pm 21:53 Cloudy 13 -10.6 9 -12.8 84 84 ESE 5 7 30.03 1017 10 16 0.00 0.00
10:53 pm 22:53 Cloudy 18 -7.8 13 -10.6 81 81 VRB 3 6 29.98 1015 10 16 0.00 0.00
11:53 pm 23:53 Mostly Cloudy 28 -2.2 20 -6.7 72 72 SW 7 11 29.95 1014 10 16 0.00 0.00

Powered by AerisWeather